KUIPER-00533

导读

KUIPER-00533(NORAD编号69605)是亚马逊“柯伊伯计划”(Project Kuiper)低轨通信星座的组网卫星之一,于2025年9月随第五次组网发射任务,由联合发射联盟(ULA)的Atlas V火箭从佛罗里达州卡纳维拉尔角太空军基地升空,属本次部署的27颗卫星之一。卫星初始被送入465公里高度轨道,后续将抬升至星座预定工作轨道,主要承担全球高速卫星互联网接入服务,未来将为JetBlue等航司机上连接场景提供技术支撑,是亚马逊推进3232颗卫星组网、实现全球通信覆盖的重要组成单元。

Basic Information
目录编号:
69605
目录名称:
KUIPER-00533
国际标识:
2026-140P
轨道中心:
EARTH
卫星名称:
KUIPER-00533
卫星全名:
KUIPER-00533
卫星状态:
在轨 (已飞行70 天)
发射日期:
2026-06-17 UTC
国别 :
美国 (US)
星等 :
--
Orbit Information
数据来源 国际轨道数据
星历时间: 2026-08-26T12:00:02+0800
7小时前
查看轨道信息
半长轴: 6976.281km
偏心率: 0.0005735
轨道倾角: 51.898°
近地点辐角 75.659°
升交点赤经 63.880°
平近点角 136.763°
近地点: 594.143km
远地点: 602.145km
周期: 96.649分钟
每日圈数: 14.899335
Detailed Information
使用方式:
暂无
2D Orbit Map
3D Orbit Map
Orbit Altitude Analysis Chart
Orbit Inclination Analysis Chart
Orbit Comprehensive Analysis Chart
View Comprehensive Chart